Tracking 29510 objects as of 16-Sep-2024
HD Live streaming from Space Station
objects crossing your sky now

COSMOS 1634

Track COSMOS 1634 now!
10-day predictions
COSMOS 1634 is classified as:


NORAD ID: 15597
Int'l Code: 1985-022A
Perigee: 961.5 km
Apogee: 1,014.5 km
Inclination: 82.9 °
Period: 104.7 minutes
Semi major axis: 7358 km
RCS: 2.2034 m2 (large)
Launch date: March 14, 1985
Source: Commonwealth of Independent States (former USSR) (CIS)
Launch site: PLESETSK MISSILE AND SPACE COMPLEX (PKMTR)
Your satellite tracking list
Your tracking list is empty




NASA's NSSDC Master Catalog

Two Line Element Set (TLE):
1 15597U 85022A   24259.20020924  .00000158  00000-0  14884-3 0  9997
2 15597  82.9428 330.2266 0035974  24.8523 353.4430 13.75234338982523
Source of the keplerian elements: AFSPC